Погода в Середке

Россия / Псковская область     58°09′32″N   28°11′30″E
В апреле 2022 года жителям России запретили посещать сайт meteo.paraplan.net по решению Генеральной прокуратуры. Аудитория сайта уменьшилась в 10 раз. Владельцы сайта не видят смысла в поддержке погодного сервера в таких условиях. Сайт будет закрыт в октябре.
темп.,
°C
ветер,
м/с
пор.,
м/с
влажн.,
%
обл.,
%
осадки,
мм/ч
давл.,
гПа
погр.,
м
30 сентября, пт
пт3000:00+8ююв249868 0.3 1005149
03:00+6ююз259823 0.4 1006131
06:00+5ююз269699 0.0 1007184
09:00+6ю3895100 1.6 1008466
12:00+9юз3689100 0.1 1010661
15:00+10зюз4774100 0.3 10111210
18:00+9ююз387960 0.1 1012311
21:00+7ююз27908 0.2 1014139
1 октября, сб
сб100:00+6юз24955 0.0 101576
03:00+5ююз229624 0.0 101537
06:00+5ю229694 0.0 101524
09:00+7ююв128876 0.0 1015100
12:00+11ю126763 0.0 1014526
15:00+13всв1256100 0.0 10121036
18:00+10всв007299 0.0 101110
21:00+7в118677 0.0 101110
2 октября, вс
вс200:00+5всв11915 0.0 101110
03:00+5всв11930 0.0 101010
06:00+4вюв1193100 0.0 101010
09:00+6юв1284100 0.0 101083
12:00+11вюв1265100 0.0 1010521
15:00+12юв1258100 0.0 1009984
18:00+9вюв0073100 0.0 101010
21:00+8вюв2280100 0.0 101026
3 октября, пн
пн300:00+6в2283100 0.0 101018
03:00+5всв2285100 0.0 100918
06:00+5св2387100 0.0 100969
09:00+6св2579100 0.0 1008223
12:00+9ссв3465100 0.0 1007633
15:00+9с4662100 0.0 1005965
18:00+8с4871100 0.0 1005838
21:00+6ссз4979100 0.0 1003755
4 октября, вт
вт400:00+7ссз61281100 0.3 10011149
03:00+7сз51391100 2.6 10001327
06:00+7сз61391100 3.1 9991316
09:00+7зсз61292100 6.0 9991442
12:00+7зсз51091100 2.4 10001231
15:00+7з5991100 3.8 10021158
18:00+7з5991100 1.0 10051065
21:00+7зсз4888100 1.5 1006934